FW2617 Weather Reports


Display with metric or nautical units.
time (UTC)temp
F
wind
direction
speed
MPH
gust
MPH
rain 1hr
in
rain 24hr
in
rain mn
in
humidity
%
barometer
mb
20260507072704 56 47 3.0 9.0 0.00 0.01 0.00 86 1015.2
20260507071825 57 41 3.0 6.0 0.00 0.01 0.00 85 1015.0
20260507070904 57 51 3.0 7.0 0.00 0.01 0.00 85 1014.8
20260507070009 57 51 3.0 8.0 0.00 0.01 0.00 85 1014.5
20260507065404 57 55 4.0 9.0 0.00 0.01 0.00 85 1014.5
20260507064504 58 58 4.0 10.0 0.00 0.01 0.00 85 1014.6
20260507063604 58 56 4.0 9.0 0.00 0.01 0.00 85 1014.6
20260507062704 58 55 4.0 9.0 0.00 0.01 0.00 85 1014.7
20260507061804 58 60 3.0 10.0 0.00 0.01 0.00 84 1014.8
20260507060904 58 58 4.0 9.0 0.00 0.01 0.00 84 1014.7
20260507060004 58 59 5.0 11.0 0.00 0.01 0.00 84 1014.8
20260507055404 58 54 5.0 11.0 0.00 0.01 0.00 85 1014.8
20260507054504 58 52 5.0 12.0 0.00 0.01 0.00 85 1014.8
20260507053604 58 57 4.0 9.0 0.00 0.01 0.00 86 1014.8
20260507052704 58 56 3.0 9.0 0.00 0.01 0.00 86 1014.8
20260507051804 58 60 3.0 9.0 0.00 0.01 0.00 86 1014.5
20260507050904 58 63 4.0 10.0 0.00 0.01 0.00 86 1014.6
20260507050005 58 62 4.0 10.0 0.00 0.01 0.00 85 1014.8
20260507045404 58 60 3.0 10.0 0.00 0.01 0.01 85 1014.9
20260507044504 58 58 3.0 9.0 0.00 0.01 0.01 85 1014.8
20260507043604 58 62 4.0 9.0 0.00 0.01 0.01 85 1014.9
20260507042704 58 64 4.0 9.0 0.00 0.01 0.01 85 1015.1
20260507041804 59 60 4.0 10.0 0.00 0.01 0.01 85 1015.0
20260507040925 59 50 4.0 10.0 0.00 0.01 0.01 85 1014.9
20260507040025 59 55 4.0 12.0 0.00 0.01 0.01 86 1015.0
20260507035404 59 51 4.0 8.0 0.00 0.01 0.01 86 1015.1
20260507034505 59 46 4.0 8.0 0.00 0.01 0.01 85 1015.1
20260507033625 59 45 4.0 8.0 0.00 0.01 0.01 85 1015.1
20260507032726 59 57 3.0 8.0 0.00 0.01 0.01 85 1015.0
20260507031825 59 41 4.0 8.0 0.00 0.01 0.01 85 1014.9
20260507030904 59 46 5.0 11.0 0.00 0.01 0.01 85 1014.9
20260507030025 59 40 5.0 11.0 0.00 0.01 0.01 85 1014.6
20260507025404 59 43 5.0 11.0 0.00 0.01 0.01 84 1014.4
20260507024504 60 48 4.0 11.0 0.00 0.01 0.01 84 1014.2
20260507023625 60 54 5.0 12.0 0.00 0.01 0.01 84 1013.9
20260507022725 60 50 4.0 10.0 0.00 0.01 0.01 84 1013.8
20260507021825 60 53 5.0 11.0 0.00 0.01 0.01 84 1013.6
20260507020904 60 57 3.0 7.0 0.00 0.01 0.01 85 1013.5
20260507020025 60 55 3.0 7.0 0.00 0.01 0.01 85 1013.3
20260507015425 60 52 3.0 5.0 0.00 0.01 0.01 85 1013.2
20260507014525 60 35 2.0 6.0 0.00 0.01 0.01 84 1012.9
20260507013604 60 34 3.0 9.0 0.00 0.01 0.01 84 1012.8
20260507012704 60 30 4.0 9.0 0.00 0.01 0.01 83 1012.5
20260507011804 60 25 4.0 8.0 0.00 0.01 0.01 83 1012.3
20260507010904 60 24 4.0 8.0 0.00 0.01 0.01 84 1012.1
20260507010004 60 26 4.0 9.0 0.00 0.01 0.01 83 1012.0
20260507005404 60 27 4.0 9.0 0.00 0.01 0.01 83 1011.9
20260507004504 60 29 4.0 9.0 0.00 0.01 0.01 83 1011.7
20260507003625 60 35 3.0 7.0 0.00 0.01 0.01 83 1011.9
20260507002705 61 37 3.0 6.0 0.00 0.01 0.01 82 1012.1
20260507001804 61 10 4.0 9.0 0.00 0.01 0.01 82 1012.0
20260507000925 61 4 4.0 9.0 0.00 0.01 0.01 82 1011.9
20260507000004 61 15 4.0 7.0 0.00 0.01 0.01 82 1011.9
20260506235425 61 18 4.0 9.0 0.00 0.01 0.01 81 1011.8
20260506234504 61 352 6.0 12.0 0.00 0.01 0.01 81 1011.6
20260506233625 62 18 5.0 10.0 0.00 0.01 0.01 79 1011.6
20260506232704 62 21 4.0 9.0 0.00 0.01 0.01 78 1011.2
20260506231804 62 25 5.0 11.0 0.00 0.01 0.01 78 1011.3
20260506230904 62 22 4.0 9.0 0.00 0.01 0.01 78 1011.3
20260506230025 62 19 5.0 10.0 0.00 0.01 0.01 78 1011.0
20260506225425 62 14 5.0 8.0 0.00 0.01 0.01 78 1011.2
20260506224525 62 4 4.0 9.0 0.00 0.01 0.01 78 1011.2
20260506223604 62 358 5.0 10.0 0.00 0.01 0.01 78 1011.2
20260506222704 62 3 5.0 11.0 0.00 0.01 0.01 78 1011.2
20260506221804 62 11 5.0 11.0 0.00 0.01 0.01 78 1011.1
20260506220904 62 359 5.0 11.0 0.00 0.01 0.01 79 1010.8
20260506220005 62 354 3.0 9.0 0.00 0.01 0.01 78 1010.9
20260506215404 62 357 4.0 10.0 0.00 0.01 0.01 78 1010.8
20260506214525 62 342 5.0 11.0 0.00 0.01 0.01 78 1010.9
20260506213604 62 343 5.0 12.0 0.00 0.01 0.01 78 1011.1
20260506212704 62 355 5.0 12.0 0.00 0.01 0.01 78 1010.9
20260506211825 62 358 5.0 11.0 0.00 0.01 0.01 78 1011.0
20260506210904 62 356 5.0 12.0 0.00 0.01 0.01 79 1011.1
20260506210004 61 352 7.0 13.0 0.00 0.01 0.01 80 1011.0
20260506205404 61 351 7.0 15.0 0.00 0.01 0.01 79 1011.0
20260506204504 61 350 7.0 12.0 0.00 0.01 0.01 80 1010.8
20260506203604 61 9 7.0 12.0 0.00 0.01 0.01 80 1011.1
20260506202704 61 2 6.0 11.0 0.00 0.01 0.01 81 1011.3
20260506201804 60 6 6.0 11.0 0.00 0.01 0.01 82 1011.5
20260506200925 60 6 6.0 11.0 0.00 0.01 0.01 83 1011.5
20260506200004 59 346 6.0 11.0 0.00 0.01 0.01 84 1011.8
20260506195425 58 343 6.0 12.0 0.00 0.01 0.01 84 1011.9
20260506194504 58 346 6.0 12.0 0.00 0.01 0.01 84 1011.8
20260506193604 57 346 7.0 12.0 0.00 0.01 0.01 85 1011.8
20260506192704 57 351 8.0 14.0 0.00 0.01 0.01 85 1011.9
20260506191804 57 333 6.0 12.0 0.00 0.01 0.01 85 1011.9
20260506190904 57 332 5.0 12.0 0.00 0.01 0.01 86 1012.0
20260506190005 57 336 6.0 11.0 0.00 0.01 0.01 86 1012.1
20260506185404 57 334 6.0 12.0 0.00 0.01 0.01 86 1012.4
20260506184504 56 343 5.0 12.0 0.00 0.01 0.01 86 1012.3
20260506183604 56 349 6.0 12.0 0.00 0.01 0.01 86 1012.1
20260506182725 56 336 5.0 12.0 0.00 0.01 0.01 86 1012.1
20260506181804 57 336 5.0 11.0 0.00 0.01 0.01 85 1012.2
20260506180904 57 355 4.0 7.0 0.00 0.01 0.01 85 1012.3
20260506180025 57 24 6.0 11.0 0.00 0.01 0.01 85 1012.2
20260506175425 57 11 6.0 12.0 0.00 0.01 0.01 85 1011.8
20260506174504 57 356 9.0 17.0 0.00 0.01 0.01 86 1011.0
20260506173625 57 360 10.0 19.0 0.00 0.01 0.01 86 1009.9
20260506172704 57 360 8.0 17.0 0.00 0.01 0.01 86 1010.1
20260506171804 56 3 7.0 15.0 0.00 0.01 0.01 86 1010.7
20260506170904 56 356 7.0 12.0 0.00 0.01 0.01 86 1011.0
20260506170004 57 7 6.0 12.0 0.00 0.01 0.01 86 1011.1
20260506165404 57 1 5.0 12.0 0.00 0.01 0.01 86 1011.3
20260506164504 57 360 4.0 9.0 0.00 0.01 0.01 86 1012.2
20260506163604 56 9 5.0 11.0 0.00 0.01 0.01 87 1012.1
20260506162704 56 10 7.0 14.0 0.00 0.01 0.01 87 1011.4
20260506161804 56 29 9.0 16.0 0.00 0.01 0.01 87 1011.1
20260506160904 56 26 9.0 15.0 0.01 0.01 0.01 88 1011.0
20260506160025 55 17 8.0 15.0 0.01 0.01 0.01 88 1011.1
20260506155404 55 16 7.0 12.0 0.01 0.01 0.01 88 1011.0
20260506154504 54 10 6.0 16.0 0.01 0.01 0.01 88 1011.2
20260506153604 54 359 5.0 10.0 0.01 0.01 0.01 88 1011.4
20260506152704 54 11 5.0 9.0 0.01 0.01 0.01 87 1011.2
20260506151804 54 357 5.0 12.0 0.01 0.01 0.01 87 1012.1
20260506150904 54 8 5.0 15.0 0.00 0.00 0.00 86 1012.0
20260506150004 54 345 6.0 15.0 0.00 0.00 0.00 85 1011.8
20260506145404 54 349 7.0 13.0 0.00 0.00 0.00 85 1012.2
20260506144504 54 333 7.0 13.0 0.00 0.00 0.00 84 1012.6
20260506143625 54 333 8.0 15.0 0.00 0.00 0.00 83 1012.9
20260506142704 55 336 7.0 14.0 0.00 0.00 0.00 83 1012.5
20260506141803 55 339 6.0 13.0 0.00 0.00 0.00 82 1011.7
20260506140904 55 347 8.0 15.0 0.00 0.00 0.00 81 1011.1
20260506140004 55 353 9.0 17.0 0.00 0.00 0.00 81 1010.7
20260506135425 56 353 8.0 17.0 0.00 0.00 0.00 80 1010.4
20260506134504 56 346 7.0 13.0 0.00 0.00 0.00 80 1011.0
20260506133604 56 348 8.0 16.0 0.00 0.00 0.00 79 1010.9
20260506132704 56 346 6.0 14.0 0.00 0.00 0.00 80 1010.6
20260506131804 56 350 8.0 15.0 0.00 0.00 0.00 80 1010.2
20260506130904 56 348 8.0 14.0 0.00 0.00 0.00 80 1009.9
20260506130005 56 359 7.0 16.0 0.00 0.00 0.00 80 1009.9
20260506125404 56 351 7.0 16.0 0.00 0.00 0.00 80 1009.8
20260506124525 57 354 7.0 17.0 0.00 0.00 0.00 80 1009.8
20260506123604 57 358 6.0 13.0 0.00 0.00 0.00 81 1009.7
20260506122725 57 353 6.0 12.0 0.00 0.00 0.00 81 1009.6
20260506121804 57 353 7.0 11.0 0.00 0.00 0.00 81 1009.4
20260506120925 57 349 7.0 16.0 0.00 0.00 0.00 81 1009.3
20260506120004 57 352 6.0 14.0 0.00 0.00 0.00 80 1009.3
20260506115404 57 353 6.0 11.0 0.00 0.00 0.00 80 1009.2
20260506114504 58 349 7.0 12.0 0.00 0.00 0.00 80 1009.2
20260506113604 58 342 6.0 12.0 0.00 0.00 0.00 80 1008.9
20260506112704 58 352 6.0 13.0 0.00 0.00 0.00 80 1008.8
20260506111804 59 346 7.0 14.0 0.00 0.00 0.00 80 1008.6
20260506110925 59 348 7.0 16.0 0.00 0.00 0.00 80 1008.4
20260506110004 59 350 6.0 14.0 0.00 0.00 0.00 80 1008.2
20260506105404 60 354 6.0 14.0 0.00 0.00 0.00 80 1008.2
20260506104504 60 348 6.0 10.0 0.00 0.00 0.00 80 1008.0
20260506103604 60 351 6.0 11.0 0.00 0.00 0.00 80 1007.9
20260506102704 60 356 6.0 12.0 0.00 0.00 0.00 80 1007.6
20260506101804 60 350 6.0 12.0 0.00 0.00 0.00 80 1007.5
20260506100904 61 347 6.0 14.0 0.00 0.00 0.00 80 1007.4
20260506100004 61 350 5.0 13.0 0.00 0.00 0.00 80 1007.2
20260506095404 61 350 5.0 10.0 0.00 0.00 0.00 80 1007.2
20260506094504 61 352 5.0 11.0 0.00 0.00 0.00 80 1006.9
20260506093604 62 349 5.0 10.0 0.00 0.00 0.00 81 1006.9
20260506092704 62 353 5.0 10.0 0.00 0.00 0.00 81 1006.9
20260506091804 62 356 4.0 9.0 0.00 0.00 0.00 81 1007.0
20260506090925 62 354 5.0 9.0 0.00 0.00 0.00 81 1007.0
20260506090004 62 352 5.0 9.0 0.00 0.00 0.00 81 1007.0
20260506085404 62 351 5.0 10.0 0.00 0.00 0.00 80 1006.9
20260506084525 63 354 4.0 10.0 0.00 0.00 0.00 80 1006.8
20260506083604 63 353 4.0 10.0 0.00 0.00 0.00 80 1006.7
20260506082704 63 18 4.0 9.0 0.00 0.00 0.00 81 1006.6
20260506081804 63 26 4.0 10.0 0.00 0.00 0.00 80 1006.5
20260506080903 63 24 4.0 8.0 0.00 0.00 0.00 80 1006.5